View from above orbital plane
|
View from above satellite
|
Ground track
|
The orbit data is extracted from the following two-line orbital elements,
1 43547U 98067NV 21024.84727713 .00027728 00000-0 21143-3 0 9991
2 43547 51.6343 269.1287 0006088 158.2292 201.8965 15.71985161144209
Epoch (UTC): | 24 January 2021 20:20:04 |
Eccentricity: | 0.0006088 |
inclination: | 51.6343° |
perigee height: | 349 km |
apogee height: | 357 km |
right ascension of ascending node: | 269.1287° |
argument of perigee: | 158.2292° |
revolutions per day: | 15.71985161 |
mean anomaly at epoch: | 201.8965° |
orbit number at epoch: | 14420 |
The dashed part of the orbit path shows where the satellite is in the earth's shadow,
|
|